Weather History for Charlottetown, PE

Change the Weather History Date:

Sunday, May 12, 2013

  Actual Average Record
Temperature  
Mean Temperature 56 °F -  
Max Temperature 61 °F 61 °F 64 °F (1997)
Min Temperature 52 °F 43 °F 28 °F (2014)
Degree Days  
Heating Degree Days 8    
Growing Degree Days 6 (Base 50)    
Moisture  
Dew Point 56 °F    
Average Humidity 99    
Maximum Humidity 100    
Minimum Humidity 93    
Precipitation  
Precipitation 0.35 in 0.12 in - ()
Sea Level Pressure  
Sea Level Pressure 29.73 in    
Wind  
Wind Speed 16 mph ()    
Max Wind Speed 23 mph    
Max Gust Speed 31 mph    
Visibility 11.6 miles    
Events Rain    
Averages and records for this station are not official NWS values.
T = Trace of Precipitation, MM = Missing Value Source: Averaged Metar Reports

Daily Weather History Graph

Daily Weather History Graph

Search for Another Location

Airport:

Trip Planner

Search our weather history database for the weather conditions in past years. The results will help you decide how hot, cold, wet, or windy it might be!

Date:

Astronomy

May. 12, 2013 Rise Set
Actual Time 5:42 AM ADT 8:35 PM ADT
Civil Twilight 5:08 AM ADT 9:10 PM ADT
Nautical Twilight 4:23 AM ADT 9:55 PM ADT
Astronomical Twilight 3:30 AM ADT 10:48 PM ADT
Moon 7:32 AM ADT (5/12) 11:00 PM ADT (5/12)
Length of Visible Light 16h 02m
Length of Day
14h 52m
Waxing Crescent, 6% of the Moon is Illuminated
May 12
Waxing Crescent
May 18
First Quarter
May 25
Full
May 31
Last Quarter
Jun 8
New

Hourly Weather History & Observations

Time (ADT) Temp. Dew Point Humidity Pressure Visibility Wind Dir Wind Speed Gust Speed Precip Events Conditions
12:00 AM 51.8 °F 51.8 °F 100% 29.88 in 10.0 mi SSE 15.0 mph 23.0 mph N/A Rain Light Rain
12:56 AM 53.6 °F 53.6 °F 100% 29.84 in 10.0 mi SE 13.8 mph - N/A Rain Light Rain
1:00 AM 53.6 °F 53.6 °F 100% 29.83 in 10.0 mi SSE 13.8 mph - N/A Rain Light Rain
1:46 AM 53.6 °F 53.6 °F 100% 29.83 in 15.0 mi SSE 17.3 mph 24.2 mph N/A   Overcast
2:00 AM 53.6 °F 53.6 °F 100% 29.81 in 15.0 mi SSE 18.4 mph 24.2 mph N/A   Overcast
3:00 AM 54 °F 54 °F 100% 29.80 in 15 mi South 17.3 mph - -   Partly Cloudy
3:00 AM 53.6 °F 53.6 °F 100% 29.80 in 15.0 mi South 17.3 mph - N/A   Overcast
3:50 AM 53.6 °F 53.6 °F 100% 29.80 in 10.0 mi South 16.1 mph - N/A Rain Light Rain Showers
4:00 AM 53.6 °F 53.6 °F 100% 29.80 in 15.0 mi South 17.3 mph - N/A Rain Light Rain Showers
4:14 AM 55.4 °F 53.6 °F 94% 29.81 in 5.0 mi South 13.8 mph - N/A Rain Heavy Rain Showers
4:31 AM 55.4 °F 55.4 °F 100% 29.80 in 10.0 mi South 16.1 mph - N/A Rain Light Rain Showers
5:00 AM 55.4 °F 55.4 °F 100% 29.78 in 10.0 mi South 17.3 mph 23.0 mph N/A Rain Light Rain Showers
5:38 AM 55.4 °F 55.4 °F 100% 29.80 in 10.0 mi South 16.1 mph 23.0 mph N/A Rain Light Rain Showers
6:00 AM 55.4 °F 55.4 °F 100% 29.81 in 10.0 mi South 16.1 mph 23.0 mph N/A Rain Light Rain Showers
7:00 AM 55.4 °F 55.4 °F 100% 29.81 in 15.0 mi South 16.1 mph 23.0 mph N/A Rain Light Rain Showers
8:00 AM 57.2 °F 57.2 °F 100% 29.79 in 10.0 mi South 17.3 mph 25.3 mph N/A Rain Light Rain Showers
8:27 AM 57.2 °F 57.2 °F 100% 29.79 in 8.0 mi SSE 16.1 mph - N/A Rain Light Rain Showers
9:00 AM 57 °F 57 °F 100% 29.80 in 12 mi SSE 17.3 mph - -   Overcast
9:00 AM 57.2 °F 57.2 °F 100% 29.79 in 12.0 mi SSE 16.1 mph - N/A Rain Light Rain Showers
10:00 AM 57.2 °F 57.2 °F 100% 29.77 in 10.0 mi SSE 17.3 mph 23.0 mph N/A Rain Light Rain Showers
11:00 AM 59.0 °F 59.0 °F 100% 29.76 in 10.0 mi South 17.3 mph 27.6 mph N/A Rain Light Rain Showers
11:38 AM 59.0 °F 59.0 °F 100% 29.76 in 12.0 mi South 18.4 mph 24.2 mph N/A   Overcast
12:00 PM 59.0 °F 59.0 °F 100% 29.76 in 12.0 mi South 20.7 mph 28.8 mph N/A Rain Light Rain Showers
1:12 PM 59.0 °F 59.0 °F 100% 29.74 in 15.0 mi SSE 23.0 mph 31.1 mph N/A   Mostly Cloudy
2:00 PM 60.8 °F 59.0 °F 94% 29.74 in 15.0 mi SSE 20.7 mph 27.6 mph N/A   Overcast
2:26 PM 60.8 °F 59.0 °F 94% 29.73 in 15.0 mi South 13.8 mph 23.0 mph N/A Rain Light Rain Showers
3:00 PM 60 °F 58 °F 93% 29.72 in 15 mi South 20.7 mph - - Rain Light Rain Showers
3:00 PM 60.8 °F 59.0 °F 94% 29.72 in 15.0 mi South 19.6 mph 29.9 mph N/A Rain Light Rain Showers
3:10 PM 59.0 °F 57.2 °F 94% 29.72 in 12.0 mi South 18.4 mph 27.6 mph N/A Rain Light Rain Showers
3:23 PM 57.2 °F 57.2 °F 100% 29.71 in 15.0 mi South 15.0 mph 29.9 mph N/A Rain Light Rain Showers
4:00 PM 60.8 °F 59.0 °F 94% 29.70 in 15.0 mi South 20.7 mph 27.6 mph N/A Rain Light Rain Showers
5:00 PM 59.0 °F 57.2 °F 94% 29.69 in 15.0 mi South 20.7 mph 27.6 mph N/A Rain Light Rain Showers
6:00 PM 59.0 °F 57.2 °F 94% 29.67 in 8.0 mi South 20.7 mph 27.6 mph N/A Rain Light Rain
6:21 PM 57.2 °F 57.2 °F 100% 29.65 in 2.5 mi South 18.4 mph - N/A Rain Light Rain
6:52 PM 57.2 °F 57.2 °F 100% 29.64 in 10.0 mi SSE 17.3 mph - N/A Rain Light Rain
7:00 PM 57.2 °F 57.2 °F 100% 29.64 in 10.0 mi SSE 19.6 mph - N/A Rain Light Rain
7:16 PM 57.2 °F 57.2 °F 100% 29.64 in 2.0 mi SSE 19.6 mph 26.5 mph N/A Rain Heavy Rain
7:30 PM 57.2 °F 57.2 °F 100% 29.63 in 3.0 mi SSE 17.3 mph 26.5 mph N/A Rain Rain
7:43 PM 59.0 °F 59.0 °F 100% 29.63 in 10.0 mi SSE 18.4 mph 27.6 mph N/A Rain Light Rain
8:00 PM 57.2 °F 57.2 °F 100% 29.63 in 10.0 mi SSE 17.3 mph 25.3 mph N/A Rain Light Rain
8:12 PM 57.2 °F 57.2 °F 100% 29.63 in 10.0 mi South 20.7 mph 28.8 mph N/A Rain Light Rain
9:00 PM 58 °F 58 °F 99% 29.62 in 15 mi South 20.7 mph - - Rain Light Rain
9:00 PM 57.2 °F 57.2 °F 100% 29.62 in 15.0 mi South 21.9 mph 29.9 mph N/A   Mostly Cloudy
10:00 PM 57.2 °F 55.4 °F 94% 29.65 in 15.0 mi South 19.6 mph 26.5 mph N/A Rain Light Rain
10:55 PM 55.4 °F 55.4 °F 100% 29.65 in 15.0 mi South 19.6 mph 25.3 mph N/A   Overcast
11:00 PM 55.4 °F 55.4 °F 100% 29.65 in 15.0 mi South 19.6 mph 25.3 mph N/A   Overcast
11:48 PM 55.4 °F 55.4 °F 100% 29.66 in 10.0 mi South 16.1 mph 23.0 mph N/A Rain Light Rain